COSMOS 397 DEB *, 5414

Orbit data source: Space-Track

COSMOS 397 DEB *, 5414 is space debris in LEO originally from a launch on Thu, 25 Feb 1971 UTC launched from the Tyuratam Missile And Space Complex (TTMTR). Debris objects in space refer to the collection of defunct objects orbiting the Earth. Examples of debris include non-operational satellites, rocket bodies, and fragments generated from explosions, collisions, or faulty payload assembly.

Loading next visibility...
Identifier
5414, 1971-015BL
Orbit
LEO
Country
Flag of CISCIS
Related business
Manufacturer
Unknown
Mission
Spacecraft
Bus & Motor
Unknown
Mass
Unknown
Launch date (UTC)
1971-02-25 (55 years ago)
Launch vehicle
Unknown
Launch site
Tyuratam Missile And Space Complex (TTMTR)
Object type
Payload
Rocket body
Debris
Shape & HBR
Unknown shape, 0.1 m
Radar Cross Section
Small (<0.1 m²)

Expand to show TLE details & history
Last TLE update: 1 day ago

TLE from 1 day ago
0 COSMOS 397 DEB *
1 05414U 71015BL  25348.47832777  .00000173  00000-0  15764-3 0  9992
2 05414  66.7654 155.0616 0081391   8.5088 351.7354 14.02973060799392
Epoch: 2025-12-14T11:28Z
TLE epoch observation values (Epoch: 2025-12-14T11:28:47.519Z)
Latitude
-0.00003°
Longitude
-100.52708°
Altitude
827.118 km
Speed
7.47 km/s
True Right ascension
10h 20m 14s
True Declination
0° 00' 00"
Sunlit
Object was in daylight at epoch
Visualization orbit readout
Latitude
Unknown
Longitude
Unknown
Altitude
Unknown
Speed
Unknown
Apparent Right ascension
Unknown
Apparent Declination
Unknown
Sunlit
N/A
Visualization observer readout
Local Sidereal Time
13:18:52
Azimuth
Unknown
Elevation
Unknown
Doppler factor
Unknown
Orbital elements
Apogee altitude
940.996 km
Perigee altitude
822.816 km
Semi-major axis
7,260.043 km
Eccentricity
0.00814
Inclination
66.7654°
RAAN
155.0616°
Arg. of periapsis
8.5088°
True anomaly
351.59997°
Mean anomaly
351.7354°
Eccentric anomaly
351.66782°
Mean motion
3.5086 °/min
Orbital period
102.6 mins
BSTAR
0.00015764
Loading maneuver chart data...
Computing Atmospheric mass density...
Loading historical data...
Loading historical data...
Loading historical data...
Loading historical data...
Loading historical data...
Loading historical data...
Loading historical data...

Documentation

Showing up to 5 results
|